Location: Invercargill
(46.4000°S, 168.3500°E)
Time: 17:43:24
(UTC+12:00)

CZ-4B R/B - Pass Details

Date: 14 May 2021
Orbit: 385 x 454 km, 97.6° (Epoch: 14 June)

Event Time Altitude Azimuth Distance (km) Brightness Sun altitude
Rises 18:27:15 0° 9° (N) 2,277 5.1 -10.8°
Reaches altitude 10° 18:29:12 10° 6° (N) 1,432 4.1 -11.1°
Maximum altitude 18:32:14 68° 282° (WNW) 435 1.5 -11.6°
Drops below altitude 10° 18:35:22 10° 198° (SSW) 1,474 4.1 -12.2°
Sets 18:37:23 0° 195° (SSW) 2,351 5.1 -12.5°
